Weather in Pangkor

Malaysia     4°12′41″N   100°34′28″E
temp.,
°C
wind,
m/s
gust,
m/s
humid.,
%
clouds,
%
prec.,
mm/h
press.,
hPa
HPBL,
m
23 april, fri
fri2323:00+28nw3474100 4.4 1012289
02:00+27nw4481100 10.3 1011412
05:00+25se2289100 3.8 1010256
08:00+26ese3383100 4.1 1011339
11:00+26ese2281100 0.0 1012384
14:00+27sse2177100 0.0 1010453
17:00+27wsw1172100 0.0 1008356
20:00+28nnw2269100 0.0 1009329
24 april, sat
sat2423:00+28nnw4470100 0.0 1011458
02:00+28nnw447198 0.0 1009562
05:00+28nnw3373100 0.0 1009642
08:00+28nne337797 0.0 1010457
11:00+28nnw227485 0.0 1011526
14:00+28nnw557690 1.1 1009460
17:00+29nw5573100 1.6 1007686
20:00+29nnw5577100 1.6 1009611
25 april, sun
sun2523:00+29nnw6776100 1.3 1011613
02:00+28nnw5579100 5.5 1010285
05:00+28nnw4472100 1.8 1009476
08:00+28nne337299 1.9 1010523
11:00+28e217399 0.0 1012334
14:00+28w117077 0.0 1010435
17:00+29wnw3366100 0.1 1008469
20:00+29nnw446998 0.1 1009753
26 april, mon
mon2623:00+29n4474100 0.6 1011620
02:00+29n5575100 3.4 1009495
05:00+28nw347399 6.9 1009377
08:00+29nnw336892 7.2 1010838
11:00+28nne347594 0.0 1011502
14:00+28nw447398 0.0 1009432
17:00+29nw6672100 0.1 1007664
20:00+29nw5674100 0.1 1009779
27 april, tue
tue2723:00+29n7877100 3.8 1011725
02:00+27nne2278100 10.6 1010156
05:00+27se2281100 1.3 1009307
08:00+26e4485100 1.3 1010335
11:00+27se227988 0.0 1011331
14:00+28ssw2176100 0.1 1009356
17:00+29w337169 0.1 1008577
20:00+29nnw2370100 0.1 1009646